Погода в Кургане

Хотите узнать прогноз погоды в Кургане? Тогда Вам сюда: Погода в Кургане

Поиск расширенной информации на нашем сайте:

Полезная информация:

Новости сайта



02.01.2020
Опубликован Долгосрочный прогноз погоды по городам России и ближнего зарубежья на январь 2020 года.
Карты: Прогноз на январь и февраль 2020 года, Сравнение прогнозируемой аномалии приземной температуры воздуха на январь 2020 года по разным моделям.




Погода в Кургане - сегодня

Время (UTC), дата Ветер
(°,м/с) 
Видим.   Явления Облачность Т
(°С)
Тd
(°С)
f(%) Тe
(°С)
Pmin
(гПа)
dP
(гПа)
Po
(мм)
O2
(г/м3)
Тmin Tmax R s Состояние
почвы
00 16.01.22 200 (Ю) 6-12{13}  10 км    6/3 300 м кучево-дожд., верхняя 
[Cb cap|Ci fib]
-1.7 -4.7 80 -5  992  2.3  737  299           
03 16.01.22 180 (Ю) 3{15}  10 км    8/5 300 м верхняя 
[Sc|Ci fib]
-0.9 -3.9 80 -3  993.5  1.6  738  299  -11.6      28  равномерный
мокрый или
старый снег
100% 
06 16.01.22 160 (Ю) 4000 м  слаб. снег  10/10 300 м 
[Ns]
-1.2 -2.3 92 -2  992.7  -0.8  738  299           
09 16.01.22 140 (ЮВ) 4000 м  слаб. снег  10/10 300 м 
[Frnb|Ns]
-2.4 -3.2 94 -3  989.5  -3.2  735  299           
12 16.01.22 160 (Ю) 4000 м  слаб. снег  10/10 300 м 
[Frnb|Ns]
-3.6 -4.3 95 -5  986.5  -2.9  733  300           
15 16.01.22 190 (Ю) 4000 м  слаб. снег  10/10 300 м 
[Frnb|Ns]
-3.7 -4.3 96 -6  984.5  -2  731  299    -0.3     
18 16.01.22 210 (ЮЗ) 5-10{11}  10 км  слаб. снег  10/5 1000 м средняя 
[Sc|Ac und]
-5.3 -7.1 87 -9  987  2.4  733  302           
21 16.01.22 230 (ЮЗ) 4{12}  4000 м  слаб. снег  10/10 300 м 
[Frnb|Ns]
-9.4 -11.3 86 -13  992.5  5.2  737  309           
00 17.01.22 230 (ЮЗ) 3{13}  10 км  слаб. снег  10/0 средняя 
[As op]
-10.6 -13 82 -14  996.5  740  311           
03 17.01.22 210 (ЮЗ) 3{12}  10 км  позёмок{снег}  8/0 средняя, верхняя 
[Ac trans|Ci fib]
-13.7 -17.3 74 -17  999.9  3.2  743  316  -13.7    32  равномерный
сухой снег
100% 
06 17.01.22 210 (ЮЗ) 20000 м  {снег}  10/0 верхняя 
[Ci fib]
-14.7 -18.2 75 -18  1003  745  319  -15.8         
09 17.01.22 210 (ЮЗ) 20000 м    10/4 1000 м средняя 
[Sc|Ac und]
-10.4 -14.9 69 -13  1005.1  2.2  747  314           
12 17.01.22 220 (ЮЗ) 3{10}  10 км    8/0 средняя, верхняя 
[Ac trans|Ci fib]
-9.5 -12.9 76 -12  1007.8  2.7  749  314           
15 17.01.22 200 (Ю) 10 км    10/0 средняя, верхняя 
[Ac trans|Ci fib]
-10.7 -13.7 79 -14  1010.6  2.7  751  316    -9       
18 17.01.22 200 (Ю) 10 км    10/0 средняя, верхняя 
[Ac trans|Ci fib]
-12.1 -14.4 83 -15  1011.5  0.8  751  318           
21 17.01.22 200 (Ю) 10 км    10/0 средняя, верхняя 
[Ac trans|Ci fib]
-14 -16.4 82 -19  1012.7  1.1  752  321           
00 18.01.22 200 (Ю) 10 км    10/0 средняя 
[Ac und]
-12.3 -14.9 81 -16  1013.5  0.8  753  319           
03 18.01.22 200 (Ю) 10 км    10/0 средняя, верхняя 
[Ac trans|Ci fib]
-11.2 -13.8 81 -14  1014.5  1.1  754  318  -14.3      32  равномерный
сухой снег
100% 
06 18.01.22 200 (Ю) 20000 м    5/3 1000 м верхняя 
[Sc|Ci fib]
-10.2 -13.1 79 -13  1016.6  2.1  755  317           
09 18.01.22 200 (Ю) 20000 м    ясно 
-8.2 -12.7 70 -12  1017.6  1.1  756  315           
12 18.01.22 200 (Ю) 10 км    ясно 
-9.5 -12.8 77 -12  1018.6  0.9  757  317           
15 18.01.22 200 (Ю) 10 км    ясно 
-11.6 -13.7 84 -15  1018.9  0.2  757  320    -8.1       
18 18.01.22 200 (Ю) 10 км    ясно 
-12.6 -14.4 86 -17  1019.3  0.4  757  321           
21 18.01.22 200 (Ю) 10 км    ясно 
-12.5 -14.3 86 -15  1020.1  0.8  758  321           
00 19.01.22 200 (Ю) 10 км    8/0 средняя 
[Ac trans]
-12.1 -14.2 84 -15  1020.3  0.2  758  321           
Время (UTC), дата Ветер
(°,м/с) 
Видим.   Явления Облачность Т
(°С)
Тd
(°С)
f(%) Тe
(°С)
Pmin
(гПа)
dP
(гПа)
Po
(мм)
O2
(г/м3)
Тmin Tmax R s Состояние
почвы

Для получения пояснительной информации подведите курсор к названию столбца.

ПОГОДА в Кургане - архив

Всё, что Вы хотите узнать о погоде в Кургане - удобно и подробно!

Выберите нужную дату (начиная с 1 января 2019* года) и нажмите кнопку "Найти".
Будут отображены архивные сводки погоды по пункту Курган, начиная с указанной даты.


Отображать данные в формате CSV (для использования в таблицах Excel)


Внимание! Наш архив погоды предназначен исключительно для личного некоммерческого использования в познавательных целях. Если Вам необходимы официальные справки о состоянии погоды (для производственных, юридических, коммерческих и т.п. целей), обращайтесь в органы Росгидромета.

*Примечание: данная дата относится к архиву по метеостанциям СССР (Россия, СНГ, Балтия).
Архив по метеостанциям Зарубежной Европы и Азии (кроме Китая) хранится 10 дней, по другим регионам земного шара (Китай, Африка, Америка, Австралия, Океания) - 1 день.

Курган - район местоположения метеостанции


Название, широта, долгота, высота метеостанции:
Курган 55.5°ш. 65.4°д. 74 м над ур. моря [Российская Федерация]

Дополнительная информация

В oтличие oт бoльшинства пoгoдных сайтoв мы публикуем пoдрoбную метеoинфoрмацию в детальнoм прoфессиoнальнoм фoрмате.

Характеристики температуры и влажнoсти вoздуха измеряются на высoте 2 м в тени вдали oт зданий и деревьев.
Скoрoсть ветра измеряется на высoте 10 м (на урoвне рoста челoвека скoрoсть ветра ниже в 1.5-2 раза). Если метеoстанция нахoдится в гoрoде или в лесу, тo скoрoсть ветра занижена на 2-4 м/с пo сравнению с oткрытым местoм. Скoрoсть ветра над акватoриями крупных рек и oзёр, а также на вершинах хoлмoв на 2-5 м/с выше, чем в oбычных услoвиях.
Атмoсфернoе давление в разных тoчках местнoсти мoжет значительнo oтличаться oт давления на метеoстанции, в зависимoсти oт услoвий рельефа (при пoдъёме на 10 м давление пoнижается примернo на 1 мм рт.ст.).